TimeCST,TemperatureF,Dew PointF,Humidity,Sea Level PressureIn,VisibilityMPH,Wind Direction,Wind SpeedMPH,Gust SpeedMPH,PrecipitationIn,Events,Conditions,WindDirDegrees,DateUTC
12:51 AM,60.1,51.1,72,30.28,10.0,NE,6.9,-,N/A,,Clear,40,2012-11-18 06:51:00
1:51 AM,59.0,50.0,72,30.26,10.0,NNE,5.8,-,N/A,,Clear,20,2012-11-18 07:51:00
2:51 AM,59.0,51.1,75,30.26,10.0,NNE,8.1,-,N/A,,Clear,30,2012-11-18 08:51:00
3:51 AM,59.0,51.1,75,30.26,10.0,NNE,6.9,-,N/A,,Clear,30,2012-11-18 09:51:00
4:51 AM,59.0,51.1,75,30.26,10.0,NNE,5.8,-,N/A,,Clear,20,2012-11-18 10:51:00
5:51 AM,57.9,52.0,81,30.27,10.0,NNE,6.9,-,N/A,,Clear,20,2012-11-18 11:51:00
6:51 AM,59.0,53.1,81,30.28,10.0,Variable,5.8,-,N/A,,Clear,0,2012-11-18 12:51:00
7:51 AM,61.0,54.0,78,30.29,10.0,NNE,8.1,-,N/A,,Clear,30,2012-11-18 13:51:00
8:51 AM,62.1,54.0,75,30.29,10.0,NNE,9.2,17.3,N/A,,Clear,20,2012-11-18 14:51:00
9:51 AM,63.0,54.0,72,30.30,9.0,NNE,10.4,-,N/A,,Clear,20,2012-11-18 15:51:00
10:51 AM,64.0,53.1,67,30.29,10.0,NE,12.7,17.3,N/A,,Clear,40,2012-11-18 16:51:00
11:51 AM,64.0,53.1,67,30.28,10.0,NNE,11.5,-,N/A,,Clear,30,2012-11-18 17:51:00
12:51 PM,64.0,53.1,67,30.25,10.0,NNE,11.5,17.3,N/A,,Clear,30,2012-11-18 18:51:00
1:51 PM,64.0,53.1,67,30.25,10.0,NNE,10.4,-,N/A,,Clear,30,2012-11-18 19:51:00
2:51 PM,63.0,52.0,67,30.25,10.0,NNE,9.2,-,N/A,,Clear,30,2012-11-18 20:51:00
3:51 PM,62.1,50.0,65,30.25,10.0,NE,9.2,-,N/A,,Clear,40,2012-11-18 21:51:00
4:51 PM,60.1,52.0,75,30.26,10.0,NNE,4.6,-,N/A,,Clear,30,2012-11-18 22:51:00
5:51 PM,60.1,52.0,75,30.27,10.0,NNE,6.9,-,N/A,,Clear,30,2012-11-18 23:51:00
6:51 PM,60.1,53.1,78,30.27,10.0,NNE,4.6,-,N/A,,Clear,30,2012-11-19 00:51:00
7:51 PM,60.1,53.1,78,30.28,10.0,NNE,3.5,-,N/A,,Clear,20,2012-11-19 01:51:00
8:51 PM,59.0,53.1,81,30.29,10.0,Calm,Calm,-,N/A,,Clear,0,2012-11-19 02:51:00
9:51 PM,57.0,54.0,89,30.29,10.0,Calm,Calm,-,N/A,,Clear,0,2012-11-19 03:51:00
10:51 PM,59.0,54.0,83,30.28,10.0,North,4.6,-,N/A,,Clear,360,2012-11-19 04:51:00
11:51 PM,59.0,55.0,87,30.27,10.0,Variable,4.6,-,N/A,,Clear,0,2012-11-19 05:51:00